Time,TemperatureF,DewpointF,PressureIn,WindDirection,WindDirectionDegrees,WindSpeedMPH,WindSpeedGustMPH,Humidity,HourlyPrecipIn,Conditions,Clouds,dailyrainin,SolarRadiationWatts/m^2,SoftwareType,DateUTC
2013-01-12 00:02:00,22.0,21.0,-100.00,East,80,0.0,0.0,97,0.00,,,0.00,0.000000,,2013-01-12 08:02:00,
2013-01-12 00:11:00,22.0,21.0,-100.00,East,80,0.0,0.0,97,0.00,,,0.00,0.000000,,2013-01-12 08:11:00,
2013-01-12 00:42:00,20.0,18.0,-100.00,SE,141,0.0,5.0,90,0.00,,,0.00,0.000000,,2013-01-12 08:42:00,
2013-01-12 00:52:00,20.0,18.0,-100.00,SE,141,0.0,5.0,90,0.00,,,0.00,0.000000,,2013-01-12 08:52:00,
2013-01-12 01:02:00,20.0,18.0,-100.00,SE,141,0.0,5.0,90,0.00,,,0.00,0.000000,,2013-01-12 09:02:00,
2013-01-12 01:11:00,20.0,18.0,-100.00,SE,141,0.0,5.0,90,0.00,,,0.00,0.000000,,2013-01-12 09:11:00,
2013-01-12 01:32:00,19.0,18.0,-100.00,SE,133,0.0,0.0,95,0.00,,,0.00,0.000000,,2013-01-12 09:32:00,
2013-01-12 01:42:00,19.0,18.0,-100.00,SE,133,0.0,0.0,95,0.00,,,0.00,0.000000,,2013-01-12 09:42:00,
2013-01-12 01:53:00,19.0,18.0,-100.00,SE,133,0.0,0.0,95,0.00,,,0.00,0.000000,,2013-01-12 09:53:00,
2013-01-12 02:02:00,19.0,18.0,-100.00,SE,133,0.0,0.0,95,0.00,,,0.00,0.000000,,2013-01-12 10:02:00,
2013-01-12 02:11:00,19.0,18.0,-100.00,SE,133,0.0,0.0,95,0.00,,,0.00,0.000000,,2013-01-12 10:11:00,
2013-01-12 02:43:00,19.0,17.0,-100.00,East,88,0.0,3.0,91,0.00,,,0.00,0.000000,,2013-01-12 10:43:00,
2013-01-12 02:52:00,19.0,17.0,-100.00,East,88,0.0,3.0,91,0.00,,,0.00,0.000000,,2013-01-12 10:52:00,
2013-01-12 03:02:00,19.0,17.0,-100.00,East,88,0.0,3.0,91,0.00,,,0.00,0.000000,,2013-01-12 11:02:00,
2013-01-12 03:12:00,19.0,17.0,-100.00,East,88,0.0,3.0,91,0.00,,,0.00,0.000000,,2013-01-12 11:12:00,
2013-01-12 03:33:00,18.0,16.0,-100.00,ESE,121,0.0,0.0,91,0.00,,,0.00,0.000000,,2013-01-12 11:33:00,
2013-01-12 03:42:00,18.0,16.0,-100.00,ESE,121,0.0,0.0,91,0.00,,,0.00,0.000000,,2013-01-12 11:42:00,
2013-01-12 03:53:00,18.0,16.0,-100.00,ESE,121,0.0,0.0,91,0.00,,,0.00,0.000000,,2013-01-12 11:53:00,
2013-01-12 04:02:00,18.0,16.0,-100.00,ESE,121,0.0,0.0,91,0.00,,,0.00,0.000000,,2013-01-12 12:02:00,
2013-01-12 04:11:00,18.0,16.0,-100.00,ESE,121,0.0,0.0,91,0.00,,,0.00,0.000000,,2013-01-12 12:11:00,
2013-01-12 04:33:00,19.0,18.0,-100.00,East,79,1.0,4.0,95,0.00,,,0.00,0.000000,,2013-01-12 12:33:00,
2013-01-12 04:43:00,19.0,18.0,-100.00,East,79,1.0,4.0,95,0.00,,,0.00,0.000000,,2013-01-12 12:43:00,
2013-01-12 04:53:00,19.0,18.0,-100.00,East,79,1.0,4.0,95,0.00,,,0.00,0.000000,,2013-01-12 12:53:00,
2013-01-12 05:02:00,19.0,18.0,-100.00,East,79,1.0,4.0,95,0.00,,,0.00,0.000000,,2013-01-12 13:02:00,
2013-01-12 05:12:00,19.0,18.0,-100.00,East,79,1.0,4.0,95,0.00,,,0.00,0.000000,,2013-01-12 13:12:00,
2013-01-12 05:43:00,19.0,17.0,-100.00,NE,39,0.0,5.0,93,0.00,,,0.00,0.000000,,2013-01-12 13:43:00,
2013-01-12 05:53:00,19.0,17.0,-100.00,NE,39,0.0,5.0,93,0.00,,,0.00,0.000000,,2013-01-12 13:53:00,
2013-01-12 06:02:00,19.0,17.0,-100.00,NE,39,0.0,5.0,93,0.00,,,0.00,0.000000,,2013-01-12 14:02:00,
2013-01-12 06:12:00,19.0,17.0,-100.00,NE,39,0.0,5.0,93,0.00,,,0.00,0.000000,,2013-01-12 14:12:00,
2013-01-12 06:33:00,17.0,15.0,-100.00,ESE,121,1.0,4.0,91,0.00,,,0.00,0.000000,,2013-01-12 14:33:00,
2013-01-12 06:43:00,17.0,15.0,-100.00,ESE,121,1.0,4.0,91,0.00,,,0.00,0.000000,,2013-01-12 14:43:00,
2013-01-12 06:53:00,17.0,15.0,-100.00,ESE,121,1.0,4.0,91,0.00,,,0.00,0.000000,,2013-01-12 14:53:00,
2013-01-12 07:03:00,17.0,15.0,-100.00,ESE,121,1.0,4.0,91,0.00,,,0.00,0.000000,,2013-01-12 15:03:00,
2013-01-12 07:12:00,17.0,15.0,-100.00,ESE,121,1.0,4.0,91,0.00,,,0.00,0.000000,,2013-01-12 15:12:00,
2013-01-12 07:33:00,22.0,12.0,-100.00,ENE,78,4.0,11.0,64,0.00,,,0.00,2.000000,,2013-01-12 15:33:00,
2013-01-12 07:43:00,22.0,12.0,-100.00,ENE,78,4.0,11.0,64,0.00,,,0.00,2.000000,,2013-01-12 15:43:00,
2013-01-12 07:53:00,22.0,12.0,-100.00,ENE,78,4.0,11.0,64,0.00,,,0.00,2.000000,,2013-01-12 15:53:00,
2013-01-12 08:02:00,22.0,12.0,-100.00,ENE,78,4.0,11.0,64,0.00,,,0.00,2.000000,,2013-01-12 16:02:00,
2013-01-12 08:12:00,22.0,12.0,-100.00,ENE,78,4.0,11.0,64,0.00,,,0.00,2.000000,,2013-01-12 16:12:00,
2013-01-12 08:33:00,34.0,11.0,-100.00,NE,51,0.0,8.0,37,0.00,,,0.00,100.000000,,2013-01-12 16:33:00,
2013-01-12 09:33:00,37.0,11.0,-100.00,ENE,76,2.0,10.0,33,0.00,,,0.00,388.000000,,2013-01-12 17:33:00,
2013-01-12 10:33:00,39.0,14.0,-100.00,NW,304,1.0,7.0,36,-99.99,,,0.00,565.000000,,2013-01-12 18:33:00,
2013-01-12 11:43:00,38.0,12.0,-100.00,WNW,282,3.0,7.0,34,0.00,,,0.00,646.000000,,2013-01-12 19:43:00,
2013-01-12 11:53:00,38.0,12.0,-100.00,WNW,282,3.0,7.0,34,0.00,,,0.00,646.000000,,2013-01-12 19:53:00,
2013-01-12 12:02:00,38.0,12.0,-100.00,WNW,282,3.0,7.0,34,0.00,,,0.00,646.000000,,2013-01-12 20:02:00,
2013-01-12 12:12:00,38.0,12.0,-100.00,WNW,282,3.0,7.0,34,0.00,,,0.00,646.000000,,2013-01-12 20:12:00,
2013-01-12 12:33:00,39.0,12.0,-100.00,West,273,4.0,10.0,32,0.00,,,0.00,778.000000,,2013-01-12 20:33:00,
2013-01-12 12:43:00,39.0,12.0,-100.00,West,273,4.0,10.0,32,0.00,,,0.00,778.000000,,2013-01-12 20:43:00,
2013-01-12 12:53:00,39.0,12.0,-100.00,West,273,4.0,10.0,32,0.00,,,0.00,778.000000,,2013-01-12 20:53:00,
2013-01-12 13:02:00,39.0,12.0,-100.00,West,273,4.0,10.0,32,0.00,,,0.00,778.000000,,2013-01-12 21:02:00,
2013-01-12 13:12:00,39.0,12.0,-100.00,West,273,4.0,10.0,32,0.00,,,0.00,778.000000,,2013-01-12 21:12:00,
2013-01-12 13:33:00,42.0,14.0,-100.00,North,356,4.0,10.0,31,0.00,,,0.00,759.000000,,2013-01-12 21:33:00,
2013-01-12 13:43:00,42.0,14.0,-100.00,North,356,4.0,10.0,31,0.00,,,0.00,759.000000,,2013-01-12 21:43:00,
2013-01-12 13:53:00,42.0,14.0,-100.00,North,356,4.0,10.0,31,0.00,,,0.00,759.000000,,2013-01-12 21:53:00,
2013-01-12 14:02:00,42.0,14.0,-100.00,North,356,4.0,10.0,31,0.00,,,0.00,759.000000,,2013-01-12 22:02:00,
2013-01-12 14:12:00,42.0,14.0,-100.00,North,356,4.0,10.0,31,0.00,,,0.00,759.000000,,2013-01-12 22:12:00,
2013-01-12 14:33:00,40.0,11.0,-100.00,NW,322,3.0,11.0,30,0.00,,,0.00,668.000000,,2013-01-12 22:33:00,
2013-01-12 14:43:00,40.0,11.0,-100.00,NW,322,3.0,11.0,30,0.00,,,0.00,668.000000,,2013-01-12 22:43:00,
2013-01-12 14:53:00,40.0,11.0,-100.00,NW,322,3.0,11.0,30,0.00,,,0.00,668.000000,,2013-01-12 22:53:00,
2013-01-12 15:02:00,40.0,11.0,-100.00,NW,322,3.0,11.0,30,0.00,,,0.00,668.000000,,2013-01-12 23:02:00,
2013-01-12 15:12:00,40.0,11.0,-100.00,NW,322,3.0,11.0,30,0.00,,,0.00,668.000000,,2013-01-12 23:12:00,
2013-01-12 15:43:00,39.0,7.0,-100.00,WSW,256,3.0,9.0,26,0.00,,,0.00,501.000000,,2013-01-12 23:43:00,
2013-01-12 15:53:00,39.0,7.0,-100.00,WSW,256,3.0,9.0,26,0.00,,,0.00,501.000000,,2013-01-12 23:53:00,
2013-01-12 16:02:00,39.0,7.0,-100.00,WSW,256,3.0,9.0,26,0.00,,,0.00,501.000000,,2013-01-13 00:02:00,
2013-01-12 16:12:00,39.0,7.0,-100.00,WSW,256,3.0,9.0,26,0.00,,,0.00,501.000000,,2013-01-13 00:12:00,
2013-01-12 16:33:00,37.0,4.0,-100.00,West,272,2.0,9.0,24,0.00,,,0.00,271.000000,,2013-01-13 00:33:00,
2013-01-12 16:43:00,37.0,4.0,-100.00,West,272,2.0,9.0,24,0.00,,,0.00,271.000000,,2013-01-13 00:43:00,
2013-01-12 16:53:00,37.0,4.0,-100.00,West,272,2.0,9.0,24,0.00,,,0.00,271.000000,,2013-01-13 00:53:00,
2013-01-12 17:02:00,37.0,4.0,-100.00,West,272,2.0,9.0,24,0.00,,,0.00,271.000000,,2013-01-13 01:02:00,
2013-01-12 17:12:00,37.0,4.0,-100.00,West,272,2.0,9.0,24,0.00,,,0.00,271.000000,,2013-01-13 01:12:00,
2013-01-12 17:43:00,29.0,7.0,-100.00,NW,308,0.0,6.0,38,0.00,,,0.00,15.000000,,2013-01-13 01:43:00,
2013-01-12 17:53:00,29.0,7.0,-100.00,NW,308,0.0,6.0,38,0.00,,,0.00,15.000000,,2013-01-13 01:53:00,
2013-01-12 18:02:00,29.0,7.0,-100.00,NW,308,0.0,6.0,38,0.00,,,0.00,15.000000,,2013-01-13 02:02:00,
2013-01-12 18:12:00,29.0,7.0,-100.00,NW,308,0.0,6.0,38,0.00,,,0.00,15.000000,,2013-01-13 02:12:00,
2013-01-12 18:33:00,25.0,6.0,-100.00,ESE,115,0.0,0.0,44,0.00,,,0.00,0.000000,,2013-01-13 02:33:00,
2013-01-12 18:43:00,25.0,6.0,-100.00,ESE,115,0.0,0.0,44,0.00,,,0.00,0.000000,,2013-01-13 02:43:00,
2013-01-12 18:53:00,25.0,6.0,-100.00,ESE,115,0.0,0.0,44,0.00,,,0.00,0.000000,,2013-01-13 02:53:00,
2013-01-12 19:02:00,25.0,6.0,-100.00,ESE,115,0.0,0.0,44,0.00,,,0.00,0.000000,,2013-01-13 03:02:00,
2013-01-12 19:12:00,25.0,6.0,-100.00,ESE,115,0.0,0.0,44,0.00,,,0.00,0.000000,,2013-01-13 03:12:00,
2013-01-12 19:33:00,24.0,6.0,-100.00,ESE,107,0.0,5.0,46,0.00,,,0.00,0.000000,,2013-01-13 03:33:00,
2013-01-12 19:43:00,24.0,6.0,-100.00,ESE,107,0.0,5.0,46,0.00,,,0.00,0.000000,,2013-01-13 03:43:00,
2013-01-12 19:53:00,24.0,6.0,-100.00,ESE,107,0.0,5.0,46,0.00,,,0.00,0.000000,,2013-01-13 03:53:00,
2013-01-12 20:02:00,24.0,6.0,-100.00,ESE,107,0.0,5.0,46,0.00,,,0.00,0.000000,,2013-01-13 04:02:00,
2013-01-12 20:12:00,24.0,6.0,-100.00,ESE,107,0.0,5.0,46,0.00,,,0.00,0.000000,,2013-01-13 04:12:00,
2013-01-12 20:33:00,21.0,9.0,-100.00,SE,129,0.0,4.0,58,0.00,,,0.00,0.000000,,2013-01-13 04:33:00,
2013-01-12 20:43:00,21.0,9.0,-100.00,SE,129,0.0,4.0,58,0.00,,,0.00,0.000000,,2013-01-13 04:43:00,
2013-01-12 20:52:00,21.0,9.0,-100.00,SE,129,0.0,4.0,58,0.00,,,0.00,0.000000,,2013-01-13 04:52:00,
2013-01-12 21:03:00,21.0,9.0,-100.00,SE,129,0.0,4.0,58,0.00,,,0.00,0.000000,,2013-01-13 05:03:00,
2013-01-12 21:12:00,21.0,9.0,-100.00,SE,129,0.0,4.0,58,0.00,,,0.00,0.000000,,2013-01-13 05:12:00,
2013-01-12 21:33:00,21.0,7.0,-100.00,East,89,0.0,3.0,55,0.00,,,0.00,0.000000,,2013-01-13 05:33:00,
2013-01-12 21:42:00,21.0,7.0,-100.00,East,89,0.0,3.0,55,0.00,,,0.00,0.000000,,2013-01-13 05:42:00,
2013-01-12 21:53:00,21.0,7.0,-100.00,East,89,0.0,3.0,55,0.00,,,0.00,0.000000,,2013-01-13 05:53:00,
2013-01-12 22:02:00,21.0,7.0,-100.00,East,89,0.0,3.0,55,0.00,,,0.00,0.000000,,2013-01-13 06:02:00,
2013-01-12 22:12:00,21.0,7.0,-100.00,East,89,0.0,3.0,55,0.00,,,0.00,0.000000,,2013-01-13 06:12:00,
2013-01-12 22:33:00,19.0,9.0,-100.00,East,101,0.0,2.0,63,0.00,,,0.00,0.000000,,2013-01-13 06:33:00,
2013-01-12 22:42:00,19.0,9.0,-100.00,East,101,0.0,2.0,63,0.00,,,0.00,0.000000,,2013-01-13 06:42:00,
2013-01-12 22:52:00,19.0,9.0,-100.00,East,101,0.0,2.0,63,0.00,,,0.00,0.000000,,2013-01-13 06:52:00,
2013-01-12 23:02:00,19.0,9.0,-100.00,East,101,0.0,2.0,63,0.00,,,0.00,0.000000,,2013-01-13 07:02:00,
2013-01-12 23:12:00,19.0,9.0,-100.00,East,101,0.0,2.0,63,0.00,,,0.00,0.000000,,2013-01-13 07:12:00,
2013-01-12 23:33:00,19.0,10.0,-100.00,East,92,1.0,3.0,67,0.00,,,0.00,0.000000,,2013-01-13 07:33:00,
2013-01-12 23:42:00,19.0,10.0,-100.00,East,92,1.0,3.0,67,0.00,,,0.00,0.000000,,2013-01-13 07:42:00,
2013-01-12 23:52:00,19.0,10.0,-100.00,East,92,1.0,3.0,67,0.00,,,0.00,0.000000,,2013-01-13 07:52:00,